FW7253 Weather Reports


time (UTC)temp
C
wind
direction
speed
KPH
gust
KPH
rain 1hr
cm
rain 24hr
cm
rain mn
cm
humidity
%
barometer
mb
20260831142031 20 217 9.7 16.1 0.00 0.00 0.00 64 1005.4
20260831141547 20 68 6.4 16.1 0.00 0.00 0.00 64 1005.4
20260831141033 20 169 8.0 14.5 0.00 0.00 0.00 64 1005.4
20260831140531 20 148 6.4 14.5 0.00 0.00 0.00 64 1005.4
20260831140053 20 110 4.8 14.5 0.00 0.00 0.00 66 1005.4
20260831135532 20 118 6.4 14.5 0.00 0.00 0.00 67 1005.4
20260831135032 20 121 4.8 16.1 0.00 0.00 0.00 68 1005.4
20260831134551 20 134 6.4 17.7 0.00 0.00 0.00 69 1005.4
20260831134032 20 94 8.0 20.9 0.00 0.00 0.00 67 1005.4
20260831133531 20 99 9.7 20.9 0.00 0.00 0.00 69 1005.4
20260831133049 20 147 8.0 17.7 0.00 0.00 0.00 68 1005.3
20260831132532 20 136 4.8 16.1 0.00 0.00 0.00 68 1005.3
20260831132032 20 119 6.4 16.1 0.00 0.00 0.00 66 1005.1
20260831131546 20 106 6.4 16.1 0.00 0.00 0.00 64 1005.1
20260831131035 21 156 4.8 12.9 0.00 0.00 0.00 65 1005.2
20260831130532 21 229 4.8 17.7 0.00 0.00 0.00 67 1005.0
20260831130101 20 92 8.0 17.7 0.00 0.00 0.00 67 1004.9
20260831125533 20 160 6.4 14.5 0.00 0.00 0.00 67 1005.1
20260831125032 20 103 8.0 16.1 0.00 0.00 0.00 68 1005.0
20260831124551 20 122 9.7 16.1 0.00 0.00 0.00 67 1005.1
20260831124034 20 110 4.8 16.1 0.00 0.00 0.00 67 1005.0
20260831123534 20 135 4.8 16.1 0.00 0.00 0.00 68 1005.0
20260831123047 20 64 4.8 11.3 0.00 0.00 0.00 69 1005.0
20260831122532 20 141 3.2 11.3 0.00 0.00 0.00 68 1005.1
20260831122034 20 98 6.4 11.3 0.00 0.00 0.00 69 1005.0
20260831121551 20 145 4.8 11.3 0.00 0.00 0.00 68 1005.0
20260831121034 20 110 3.2 11.3 0.00 0.00 0.00 69 1005.0
20260831120533 20 161 6.4 11.3 0.00 0.00 0.00 67 1005.0
20260831120051 20 110 3.2 8.0 0.00 0.00 0.00 67 1005.0
20260831115531 20 0 1.6 6.4 0.00 0.00 0.00 65 1004.9
20260831115031 20 196 1.6 4.8 0.00 0.00 0.00 67 1004.9
20260831114548 20 165 1.6 8.0 0.00 0.00 0.00 65 1005.0
20260831114034 20 162 3.2 11.3 0.00 0.00 0.00 65 1004.9
20260831113534 20 92 4.8 12.9 0.00 0.00 0.00 66 1004.9
20260831113054 20 127 6.4 12.9 0.00 0.00 0.00 68 1004.9
20260831112532 20 82 8.0 12.9 0.00 0.00 0.00 67 1004.8
20260831112039 20 123 1.6 9.7 0.00 0.00 0.00 63 1004.8
20260831111546 21 138 3.2 9.7 0.00 0.00 0.00 61 1004.7
20260831111031 21 107 4.8 9.7 0.00 0.00 0.00 60 1004.8
20260831110531 21 0 3.2 8.0 0.00 0.00 0.00 62 1004.7
20260831110051 20 329 3.2 8.0 0.00 0.00 0.00 62 1004.7
20260831105534 20 179 3.2 6.4 0.00 0.00 0.00 60 1004.7
20260831105032 20 219 1.6 6.4 0.00 0.00 0.00 63 1004.8
20260831104601 20 0 1.6 12.9 0.00 0.00 0.00 63 1004.9
20260831104032 20 48 3.2 12.9 0.00 0.00 0.00 60 1004.8
20260831103531 20 274 4.8 9.7 0.00 0.00 0.00 62 1004.8
20260831103048 20 209 4.8 11.3 0.00 0.00 0.00 62 1004.9
20260831102533 20 151 4.8 11.3 0.00 0.00 0.00 61 1004.8
20260831102036 20 207 3.2 11.3 0.00 0.00 0.00 60 1004.8
20260831101553 20 219 4.8 11.3 0.00 0.00 0.00 62 1004.9
20260831101032 21 143 1.6 8.0 0.00 0.00 0.00 60 1004.8
20260831100532 20 102 3.2 8.0 0.00 0.00 0.00 62 1004.9
20260831095534 20 237 3.2 8.0 0.00 0.00 0.00 61 1004.8
20260831095032 20 148 1.6 9.7 0.00 0.00 0.00 61 1004.8
20260831094547 20 142 4.8 9.7 0.00 0.00 0.00 62 1004.8
20260831094034 20 153 3.2 6.4 0.00 0.00 0.00 64 1004.8
20260831093532 20 194 1.6 4.8 0.00 0.00 0.00 64 1004.8
20260831093050 20 150 0.0 4.8 0.00 0.00 0.00 64 1004.8
20260831092534 19 309 1.6 4.8 0.00 0.00 0.00 67 1004.8
20260831092031 19 215 1.6 8.0 0.00 0.00 0.00 68 1004.8
20260831091545 18 303 3.2 8.0 0.00 0.00 0.00 70 1004.7
20260831091031 18 250 4.8 8.0 0.00 0.00 0.00 68 1004.7
20260831090534 18 161 1.6 6.4 0.00 0.00 0.00 70 1004.7
20260831090047 18 224 1.6 4.8 0.00 0.00 0.00 72 1004.6
20260831085532 17 348 3.2 4.8 0.00 0.00 0.00 74 1004.7
20260831085031 17 165 0.0 4.8 0.00 0.00 0.00 77 1004.7
20260831084607 17 104 1.6 4.8 0.00 0.00 0.00 85 1004.8
20260831084031 16 151 3.2 4.8 0.00 0.00 0.00 93 1004.8
20260831083531 16 160 3.2 4.8 0.00 0.00 0.00 95 1004.7
20260831083054 16 207 1.6 4.8 0.00 0.00 0.00 96 1004.8
20260831082531 15 195 3.2 4.8 0.00 0.00 0.00 96 1004.7
20260831082031 15 0 0.0 4.8 0.00 0.00 0.00 97 1004.7
20260831081547 15 195 0.0 4.8 0.00 0.00 0.00 97 1004.7
20260831081033 14 191 0.0 4.8 0.00 0.00 0.00 97 1004.8
20260831080532 13 0 0.0 0.0 0.00 0.00 0.00 97 1004.7
20260831080055 13 0 0.0 0.0 0.00 0.00 0.00 97 1004.7
20260831075531 13 0 0.0 0.0 0.00 0.00 0.00 97 1004.8
20260831075033 13 0 0.0 0.0 0.00 0.00 0.00 97 1004.8
20260831074546 13 0 0.0 0.0 0.00 0.00 0.00 97 1004.8
20260831074032 13 0 0.0 0.0 0.00 0.00 0.00 97 1004.8
20260831073535 13 0 0.0 0.0 0.00 0.00 0.00 97 1004.7
20260831073054 13 0 0.0 0.0 0.00 0.00 0.00 97 1004.7
20260831072530 12 0 0.0 0.0 0.00 0.00 0.00 97 1004.6
20260831072036 12 0 0.0 0.0 0.00 0.00 0.00 97 1004.7
20260831071549 12 0 0.0 0.0 0.00 0.00 0.00 96 1004.7
20260831071031 12 0 0.0 0.0 0.00 0.00 0.00 96 1004.6
20260831070531 12 0 0.0 0.0 0.00 0.00 0.00 97 1004.7
20260831070049 12 0 0.0 0.0 0.00 0.00 0.00 97 1004.7
20260831065535 12 0 0.0 0.0 0.00 0.00 0.00 97 1004.8
20260831065035 12 0 0.0 0.0 0.00 0.00 0.00 96 1004.7
20260831064553 11 0 0.0 0.0 0.00 0.00 0.00 97 1004.7
20260831064036 11 0 0.0 0.0 0.00 0.00 0.00 96 1004.6
20260831063534 11 0 0.0 0.0 0.00 0.00 0.00 97 1004.6
20260831063050 11 0 0.0 0.0 0.00 0.00 0.00 96 1004.5
20260831062536 11 0 0.0 0.0 0.00 0.00 0.00 96 1004.4
20260831062034 11 0 0.0 0.0 0.00 0.00 0.00 96 1004.4
20260831061548 11 0 0.0 0.0 0.00 0.00 0.00 96 1004.3
20260831061033 11 0 0.0 0.0 0.00 0.00 0.00 96 1004.4
20260831060532 11 0 0.0 0.0 0.00 0.00 0.00 96 1004.3
20260831060048 11 0 0.0 0.0 0.00 0.00 0.00 96 1004.3
20260831055535 10 0 0.0 0.0 0.00 0.00 0.00 96 1004.2
20260831055033 10 0 0.0 0.0 0.00 0.00 0.00 96 1004.2
20260831054551 10 0 0.0 0.0 0.00 0.00 0.00 96 1004.3
20260831054031 10 0 0.0 1.6 0.00 0.00 0.00 96 1004.1
20260831053531 10 0 0.0 1.6 0.00 0.00 0.00 96 1004.1
20260831053048 10 252 0.0 1.6 0.00 0.00 0.00 96 1004.1
20260831052531 10 0 0.0 0.0 0.00 0.00 0.00 96 1004.1
20260831052031 10 0 0.0 0.0 0.00 0.00 0.00 96 1004.1
20260831051555 10 0 0.0 0.0 0.00 0.00 0.00 96 1004.2
20260831051034 10 0 0.0 0.0 0.00 0.00 0.00 96 1004.2
20260831050532 10 0 0.0 0.0 0.00 0.00 0.00 96 1004.3
20260831050052 10 0 0.0 0.0 0.00 0.00 0.00 96 1004.2
20260831045534 10 0 0.0 0.0 0.00 0.00 0.00 96 1004.1
20260831045037 10 0 0.0 0.0 0.00 0.00 0.00 96 1004.1
20260831044602 10 0 0.0 0.0 0.00 0.00 0.00 96 1004.2
20260831044034 10 0 0.0 0.0 0.00 0.00 0.00 96 1004.1
20260831043531 10 0 0.0 0.0 0.00 0.00 0.00 96 1004.1
20260831043056 10 0 0.0 0.0 0.00 0.00 0.00 96 1004.0
20260831042531 10 0 0.0 0.0 0.00 0.00 0.00 96 1003.9
20260831042031 10 0 0.0 0.0 0.00 0.00 0.00 96 1003.9
20260831041601 10 0 0.0 0.0 0.00 0.00 0.00 96 1003.9
20260831041038 10 0 0.0 0.0 0.00 0.00 0.00 96 1003.8
20260831040534 10 0 0.0 0.0 0.00 0.00 0.00 96 1003.7
20260831040050 10 0 0.0 0.0 0.00 0.00 0.00 96 1003.7
20260831035537 10 0 0.0 0.0 0.00 0.00 0.00 96 1003.8
20260831035032 10 0 0.0 0.0 0.00 0.00 0.00 96 1003.7
20260831034546 10 0 0.0 0.0 0.00 0.00 0.00 96 1003.7
20260831034031 10 0 0.0 0.0 0.00 0.00 0.00 96 1003.7
20260831033534 10 0 0.0 0.0 0.00 0.00 0.00 96 1003.6
20260831033052 10 0 0.0 0.0 0.00 0.00 0.00 96 1003.7
20260831032531 10 0 0.0 0.0 0.00 0.00 0.00 96 1003.6
20260831032034 10 0 0.0 0.0 0.00 0.00 0.00 96 1003.6
20260831031547 10 0 0.0 0.0 0.00 0.00 0.00 96 1003.6
20260831031031 10 0 0.0 1.6 0.00 0.00 0.00 96 1003.6
20260831030535 10 0 0.0 1.6 0.00 0.00 0.00 96 1003.5
20260831030106 10 243 0.0 1.6 0.00 0.00 0.00 96 1003.5
20260831025531 10 0 0.0 3.2 0.00 0.00 0.00 96 1003.5
20260831025031 10 0 0.0 4.8 0.00 0.00 0.00 96 1003.4
20260831024554 10 345 1.6 4.8 0.00 0.00 0.00 96 1003.4
20260831024033 10 24 0.0 4.8 0.00 0.00 0.00 96 1003.3
20260831023534 11 0 0.0 0.0 0.00 0.00 0.00 96 1003.4
20260831023047 11 0 0.0 0.0 0.00 0.00 0.00 96 1003.4
20260831022534 11 0 0.0 0.0 0.00 0.00 0.00 96 1003.5
20260831022034 11 0 0.0 0.0 0.00 0.00 0.00 96 1003.5
20260831021600 11 0 0.0 0.0 0.00 0.00 0.00 96 1003.6
20260831021036 11 0 0.0 0.0 0.00 0.00 0.00 96 1003.6
20260831020534 11 0 0.0 0.0 0.00 0.00 0.00 96 1003.7
20260831020106 11 0 0.0 0.0 0.00 0.00 0.00 96 1003.5
20260831015533 11 0 0.0 0.0 0.00 0.00 0.00 96 1003.5
20260831015034 11 0 0.0 0.0 0.00 0.00 0.00 96 1003.5
20260831014602 11 0 0.0 0.0 0.00 0.00 0.00 96 1003.6
20260831014034 11 0 0.0 0.0 0.00 0.00 0.00 96 1003.6
20260831013534 11 0 0.0 0.0 0.00 0.00 0.00 96 1003.5
20260831013050 11 0 0.0 0.0 0.00 0.00 0.00 96 1003.6
20260831012534 11 0 0.0 0.0 0.00 0.00 0.00 96 1003.5
20260831012034 11 0 0.0 0.0 0.00 0.00 0.00 96 1003.5
20260831011604 11 0 0.0 0.0 0.00 0.00 0.00 96 1003.5
20260831011034 11 0 0.0 0.0 0.00 0.00 0.00 96 1003.5
20260831010534 11 0 0.0 0.0 0.00 0.00 0.00 96 1003.6
20260831010051 11 0 0.0 0.0 0.00 0.00 0.00 96 1003.6
20260831005534 11 0 0.0 0.0 0.00 0.00 0.00 96 1003.5
20260831005034 11 0 0.0 0.0 0.00 0.00 0.00 96 1003.6
20260831004550 11 0 0.0 0.0 0.00 0.00 0.00 96 1003.4
20260831004036 12 0 0.0 0.0 0.00 0.00 0.00 96 1003.4
20260831003533 11 0 0.0 0.0 0.00 0.00 0.00 96 1003.4
20260831003051 11 0 0.0 0.0 0.00 0.00 0.00 96 1003.6
20260831002537 11 0 0.0 0.0 0.00 0.00 0.00 96 1003.6
20260831002033 11 0 0.0 0.0 0.00 0.00 0.00 96 1003.6
20260831001602 11 0 0.0 0.0 0.00 0.00 0.00 96 1003.5
20260831001033 12 0 0.0 0.0 0.00 0.00 0.00 96 1003.5
20260831000533 12 0 0.0 0.0 0.00 0.00 0.00 96 1003.6
20260831000050 12 0 0.0 0.0 0.00 0.00 0.00 96 1003.5
20260830235536 12 0 0.0 0.0 0.00 0.00 0.00 96 1003.5
20260830235035 12 0 0.0 0.0 0.00 0.00 0.00 96 1003.3
20260830234549 12 0 0.0 0.0 0.00 0.00 0.00 96 1003.4
20260830234032 12 0 0.0 0.0 0.00 0.00 0.00 96 1003.3
20260830233533 12 0 0.0 0.0 0.00 0.00 0.00 96 1003.4
20260830233103 12 0 0.0 0.0 0.00 0.00 0.00 96 1003.3
20260830232536 12 0 0.0 0.0 0.00 0.00 0.00 95 1003.4
20260830232033 13 0 0.0 0.0 0.00 0.00 0.00 96 1003.4
20260830231555 13 0 0.0 0.0 0.00 0.00 0.00 96 1003.3
20260830231033 13 0 0.0 0.0 0.00 0.00 0.00 96 1003.3
20260830230532 13 0 0.0 0.0 0.00 0.00 0.00 96 1003.5
20260830230048 13 0 0.0 0.0 0.00 0.00 0.00 96 1003.3
20260830225532 13 0 0.0 0.0 0.00 0.00 0.00 96 1003.3
20260830225034 13 0 0.0 0.0 0.00 0.00 0.00 96 1003.5
20260830224628 13 0 0.0 0.0 0.00 0.00 0.00 95 1003.4
20260830224032 13 0 0.0 0.0 0.00 0.00 0.00 96 1003.4
20260830223532 14 0 0.0 0.0 0.00 0.00 0.00 96 1003.4
20260830223057 14 0 0.0 0.0 0.00 0.00 0.00 96 1003.3
20260830222531 14 0 0.0 0.0 0.00 0.00 0.00 95 1003.2
20260830222033 13 0 0.0 0.0 0.00 0.00 0.00 95 1003.3
20260830221553 13 0 0.0 0.0 0.00 0.00 0.00 95 1003.3
20260830221033 14 0 0.0 0.0 0.00 0.00 0.00 95 1003.3
20260830220533 13 0 0.0 0.0 0.00 0.00 0.00 95 1003.3
20260830220104 13 0 0.0 0.0 0.00 0.00 0.00 95 1003.3
20260830215531 14 0 0.0 0.0 0.00 0.00 0.00 95 1003.3
20260830215033 14 0 0.0 0.0 0.00 0.00 0.00 95 1003.4
20260830214558 14 0 0.0 0.0 0.00 0.00 0.00 95 1003.3
20260830214031 14 0 0.0 0.0 0.00 0.00 0.00 95 1003.4
20260830213531 14 0 0.0 0.0 0.00 0.00 0.00 95 1003.2
20260830213052 14 0 0.0 0.0 0.00 0.00 0.00 95 1003.4
20260830212534 14 0 0.0 0.0 0.00 0.00 0.00 95 1003.2
20260830212031 14 0 0.0 0.0 0.00 0.00 0.00 94 1003.2
20260830211559 14 0 0.0 0.0 0.00 0.00 0.00 94 1003.2
20260830211033 15 0 0.0 0.0 0.00 0.00 0.00 94 1003.1
20260830210534 15 0 0.0 1.6 0.00 0.00 0.00 94 1003.1
20260830205530 15 175 0.0 0.0 0.00 0.00 0.00 94 1003.1
20260830205030 15 0 0.0 0.0 0.00 0.00 0.00 94 1003.1
20260830204552 15 153 0.0 1.6 0.00 0.00 0.00 94 1003.2
20260830204031 15 153 0.0 1.6 0.00 0.00 0.00 94 1003.1
20260830203531 15 0 0.0 3.2 0.00 0.00 0.00 94 1003.1
20260830203049 15 0 0.0 3.2 0.00 0.00 0.00 94 1003.1
20260830202531 15 0 0.0 3.2 0.00 0.00 0.00 94 1003.0
20260830202032 15 166 0.0 3.2 0.00 0.00 0.00 93 1003.1
20260830201547 15 0 0.0 3.2 0.00 0.00 0.00 93 1003.1
20260830201033 15 167 0.0 1.6 0.00 0.00 0.00 93 1003.1
20260830200537 15 127 0.0 4.8 0.00 0.00 0.00 93 1003.1
20260830200054 15 150 0.0 4.8 0.00 0.00 0.00 93 1003.0
20260830195530 15 189 0.0 4.8 0.00 0.00 0.00 93 1003.1
20260830195031 15 186 1.6 4.8 0.00 0.00 0.00 93 1003.0
20260830194551 15 131 0.0 3.2 0.00 0.00 0.00 92 1003.1
20260830194036 15 0 0.0 3.2 0.00 0.00 0.00 92 1003.0
20260830193530 15 155 1.6 4.8 0.00 0.00 0.00 92 1003.1
20260830193048 15 139 0.0 4.8 0.00 0.00 0.00 92 1003.1
20260830192530 15 0 0.0 4.8 0.00 0.00 0.00 91 1003.0
20260830192033 15 0 0.0 0.0 0.00 0.00 0.00 91 1003.0
20260830191546 15 0 0.0 0.0 0.00 0.00 0.00 91 1003.0
20260830191031 15 0 0.0 0.0 0.00 0.00 0.00 91 1003.0
20260830190530 15 0 0.0 0.0 0.00 0.00 0.00 91 1002.9
20260830190053 15 0 0.0 0.0 0.00 0.00 0.00 91 1002.9
20260830185533 15 0 0.0 1.6 0.00 0.00 0.00 91 1002.9
20260830185032 15 0 0.0 3.2 0.00 0.00 0.00 91 1002.7
20260830184547 15 0 0.0 3.2 0.00 0.00 0.00 90 1002.8
20260830184033 15 162 0.0 1.6 0.00 0.00 0.00 90 1002.8
20260830183532 16 0 0.0 1.6 0.00 0.00 0.00 90 1002.7
20260830183048 16 126 0.0 1.6 0.00 0.00 0.00 90 1002.7
20260830182534 16 0 0.0 1.6 0.00 0.00 0.00 90 1002.7
20260830182032 16 129 0.0 3.2 0.00 0.00 0.00 90 1002.7
20260830181549 16 110 0.0 3.2 0.00 0.00 0.00 89 1002.7
20260830181032 16 0 0.0 3.2 0.00 0.00 0.00 89 1002.7
20260830180534 16 172 0.0 1.6 0.00 0.00 0.00 89 1002.7
20260830180053 16 0 0.0 1.6 0.00 0.00 0.00 89 1002.7
20260830175531 16 134 0.0 3.2 0.00 0.00 0.00 88 1002.6
20260830175031 16 0 0.0 3.2 0.00 0.00 0.00 88 1002.7
20260830174551 16 109 1.6 3.2 0.00 0.00 0.00 88 1002.5
20260830174033 16 0 0.0 6.4 0.00 0.00 0.00 88 1002.5
20260830173532 16 136 0.0 6.4 0.00 0.00 0.00 88 1002.5
20260830173045 16 195 3.2 6.4 0.00 0.00 0.00 88 1002.5
20260830172532 16 0 3.2 6.4 0.00 0.00 0.00 88 1002.5
20260830172032 16 160 1.6 8.0 0.00 0.00 0.00 88 1002.5
20260830171603 16 148 1.6 8.0 0.00 0.00 0.00 88 1002.5
20260830171031 16 210 3.2 8.0 0.00 0.00 0.00 87 1002.4
20260830170531 16 168 1.6 8.0 0.00 0.00 0.00 87 1002.5
20260830170048 16 148 3.2 8.0 0.00 0.00 0.00 87 1002.4
20260830165533 16 186 3.2 8.0 0.00 0.00 0.00 87 1002.4
20260830165034 16 169 4.8 8.0 0.00 0.00 0.00 87 1002.4
20260830164600 16 203 4.8 8.0 0.00 0.00 0.00 87 1002.4
20260830164032 16 146 3.2 9.7 0.00 0.00 0.00 86 1002.3
20260830163533 17 211 4.8 11.3 0.00 0.00 0.00 86 1002.3
20260830163053 17 189 4.8 11.3 0.00 0.00 0.00 86 1002.2
20260830162533 17 172 4.8 9.7 0.00 0.00 0.00 85 1002.2
20260830162032 17 196 4.8 9.7 0.00 0.00 0.00 85 1002.2
20260830161550 17 198 4.8 12.9 0.00 0.00 0.00 85 1002.2
20260830161032 17 166 6.4 12.9 0.00 0.00 0.00 84 1002.1
20260830160532 17 207 4.8 11.3 0.00 0.00 0.00 84 1002.2
20260830160050 17 207 4.8 9.7 0.00 0.00 0.00 84 1002.1
20260830155532 17 181 6.4 9.7 0.00 0.00 0.00 84 1002.2
20260830155032 17 146 4.8 11.3 0.00 0.00 0.00 83 1002.1
20260830154548 18 226 3.2 11.3 0.00 0.00 0.00 82 1002.1
20260830154031 18 165 3.2 14.5 0.00 0.00 0.00 81 1002.1
20260830153531 18 139 4.8 14.5 0.00 0.00 0.00 81 1002.0
20260830153055 18 146 4.8 16.1 0.00 0.00 0.00 80 1002.0
20260830152532 19 167 4.8 16.1 0.00 0.00 0.00 80 1002.0
20260830152033 19 75 4.8 16.1 0.00 0.00 0.00 78 1002.0
20260830151550 20 203 3.2 16.1 0.00 0.00 0.00 78 1002.1
20260830151034 19 188 4.8 12.9 0.00 0.00 0.00 80 1002.0
20260830150533 19 168 4.8 14.5 0.00 0.00 0.00 81 1002.0
20260830150047 19 219 6.4 14.5 0.00 0.00 0.00 79 1002.1
20260830145533 18 142 4.8 12.9 0.00 0.00 0.00 80 1002.0
20260830145034 18 113 6.4 11.3 0.00 0.00 0.00 81 1002.0
20260830144546 18 164 3.2 11.3 0.00 0.00 0.00 81 1002.1
20260830144033 18 217 4.8 11.3 0.00 0.00 0.00 81 1002.1
20260830143530 18 167 4.8 12.9 0.00 0.00 0.00 81 1002.2
20260830143107 18 226 4.8 16.1 0.00 0.00 0.00 80 1002.2
20260830142530 18 182 6.4 16.1 0.00 0.00 0.00 81 1002.2